Osoyoos, British Columbia

9:11 AM PDT on April 21, 2018 (GMT -0700)
Osoyoos

Weather History for CWYY - March, 2013

Change the Weather History Date:

Saturday, March 16, 2013

  Actual Average (KOMK) Record (KOMK)
Temperature  
Mean Temperature 47 °F 42 °F  
Max Temperature 57 °F 53 °F 69 °F (1972)
Min Temperature 37 °F 31 °F 15 °F (1971)
Degree Days  
Heating Degree Days 18 23  
Month to date heating degree days 422  
Since 1 July heating degree days 5283  
Cooling Degree Days 0 0  
Month to date cooling degree days 0  
Year to date cooling degree days 0  
Moisture  
Dew Point 33 °F    
Average Humidity 58    
Maximum Humidity 86    
Minimum Humidity 24    
Precipitation  
Precipitation 0.00 in 0.03 in 0.41 in (1933)
Month to date precipitation 0.68  
Year to date precipitation 3.98  
Sea Level Pressure  
Sea Level Pressure 29.82 in    
Wind  
Wind Speed 4 mph ()    
Max Wind Speed 12 mph    
Max Gust Speed 23 mph    
T = Trace of Precipitation, MM = Missing Value Source: Averaged Metar Reports

Daily Weather History Graph

Daily Weather History Graph

Search for Another Location

Airport or City:

Astronomy

Mar. 16, 2013 Rise Set
Actual Time 7:08 AM PDT 7:05 PM PDT
Civil Twilight 6:36 AM PDT 7:36 PM PDT
Nautical Twilight 5:59 AM PDT 8:13 PM PDT
Astronomical Twilight 5:21 AM PDT 8:51 PM PDT
Moon 9:14 AM PDT (3/16) No Moon Set
Length of Visible Light 12h 59m
Length of Day
11h 56m
Waxing Crescent, 24% of the Moon is Illuminated
Mar 16
Waxing Crescent
Mar 19
First Quarter
Mar 27
Full
Apr 2
Last Quarter
Apr 10
New

Hourly Weather History & Observations

Time (PDT) Temp. Windchill Dew Point Humidity Pressure Visibility Wind Dir Wind Speed Gust Speed Precip Events Conditions
12:00 AM 43.7 °F - 35.6 °F 73% 30.01 in - SE 1.2 mph - N/A   Unknown
1:00 AM 45.5 °F - 36.0 °F 69% 30.01 in - WNW 1.2 mph - N/A   Unknown
2:00 AM 43.5 °F - 36.1 °F 75% 30.00 in - ESE 1.2 mph - N/A   Unknown
3:00 AM 41.7 °F - 35.1 °F 77% 29.99 in - SW 2.3 mph - N/A   Unknown
5:00 AM 39 °F - 34 °F 76% 29.97 in - East 2.3 mph - -  
5:00 AM 38.8 °F - 34.0 °F 83% 29.97 in - East 2.3 mph - N/A   Unknown
6:00 AM 39.9 °F 37.8 °F 35.4 °F 84% 29.97 in - ESE 3.5 mph - N/A   Unknown
7:00 AM 41.2 °F 39.2 °F 33.3 °F 73% 29.95 in - SW 3.5 mph - N/A   Unknown
8:00 AM 40.5 °F - 36.5 °F 86% 29.94 in - SSE 2.3 mph - N/A   Unknown
9:00 AM 42.3 °F - 33.6 °F 71% 29.93 in - SE 1.2 mph - N/A   Unknown
10:00 AM 44.8 °F 42.4 °F 32.0 °F 61% 29.92 in - SSE 4.6 mph - N/A   Unknown
11:00 AM 46 °F - 32 °F 46% 29.90 in - SE 6.9 mph - -  
11:00 AM 46.2 °F 42.7 °F 31.8 °F 57% 29.90 in - SE 6.9 mph - N/A   Unknown
12:00 PM 48.0 °F - 33.6 °F 57% 29.86 in - SSE 4.6 mph - N/A   Unknown
1:00 PM 50.7 °F - 35.4 °F 56% 29.82 in - SSE 6.9 mph - N/A   Unknown
2:00 PM 52.3 °F - 34.3 °F 50% 29.78 in - SSE 6.9 mph - N/A   Unknown
3:00 PM 53.1 °F - 35.1 °F 50% 29.74 in - South 6.9 mph - N/A   Unknown
4:00 PM 54.1 °F - 34.5 °F 48% 29.70 in - SSE 3.5 mph - N/A   Unknown
5:00 PM 56 °F - 30 °F 25% 29.66 in - South 11.5 mph - -  
5:00 PM 55.8 °F - 30.4 °F 38% 29.66 in - South 11.5 mph 18.4 mph N/A   Unknown
6:00 PM 53.2 °F - 31.8 °F 44% 29.63 in - South 11.5 mph 23.0 mph N/A   Unknown
7:00 PM 52.3 °F - 30.6 °F 43% 29.61 in - SE 6.9 mph - N/A   Unknown
8:00 PM 48.7 °F - 33.1 °F 55% 29.62 in - South 8.1 mph - N/A   Unknown
9:00 PM 46.0 °F 41.0 °F 32.0 °F 58% 29.66 in - North 10.4 mph 19.6 mph N/A   Unknown
10:00 PM 45.3 °F 42.3 °F 30.0 °F 55% 29.67 in - West 5.8 mph - N/A   Unknown
11:00 PM 46 °F - 21 °F 24% 29.66 in - North 9.2 mph - -  
11:00 PM 46.4 °F 41.9 °F 20.7 °F 36% 29.66 in - North 9.2 mph - N/A   Unknown